www.pogodaiklimat.ru

Погода и климат >> Архив погоды >> Южная Африка >> Мыс Mossel Bay


ПОГОДА на Мысе Mossel Bay

  • Прогноз погоды на Мысе Mossel Bay
  • Монитор погоды на Мысе Mossel Bay

АРХИВ ПОГОДЫ на Мысе Mossel Bay

Время (UTC), дата Ветер
(напр.,м/с)
 
Видим.   Явления Облачность Т
(С)
Тd
(С)
f
(%)
Тe
(С)
Тes
(С)
Комфортность P
(гПа)
Po
(гПа)
Тmin
(С)
Tmax
(С)
R
(мм)
R24
(мм)
S
(см)
15 18.06 С 2 н/о н/о +16.2 +9.6 65 +17 +17 1020.6 1004.5 +16.2 +20.3
18 18.06 СЗ 2 н/о н/о +17.0 +6.3 49 +18 +18 1020.3 1004.3 +15.2 +20.3
21 18.06 СЗ 3 н/о н/о +21.4 +2.8 29 +21 +21 комфорт 1020.0 1004.2 +15.2 +21.4
00 19.06 СЗ 3 н/о н/о +20.7 +2.6 30 +22 +22 комфорт 1019.7 1003.9 +15.2 +22.1
03 19.06 СЗ 3 н/о н/о +21.6 +2.5 28 +21 +21 комфорт 1019.0 1003.3 +15.2 +22.3
06 19.06 СЗ 4 н/о н/о +21.3 +2.7 29 +21 +21 комфорт 1020.0 1004.2 +15.2
09 19.06 С 4 н/о н/о +26.2 +4.3 24 +25 +25 комфорт 1020.8 1005.3 +15.2 +26.2
12 19.06 С 4 н/о н/о +29.1 +2.7 18 +27 +27 жарко 1018.9 1003.5 +15.2 +29.8
15 19.06 СЗ 2 н/о н/о +26.4 +2.6 21 +25 +25 комфорт 1018.6 1003.1 +26.4 +29.8
18 19.06 ЮЗ 5 н/о н/о +17.9 +7.4 50 +18 +18 1020.8 1004.8 +17.2 +29.8
21 19.06 штиль 0 н/о н/о +15.6 +4.1 46 +16 +16 1021.9 1005.8 +15.6 +29.8
00 20.06 СЗ 1 н/о н/о +14.9 +3.4 46 +16 +16 1021.9 1005.7 +14.6 +29.8
03 20.06 С 1 н/о н/о +15.6 +2.1 40 +16 +16 1021.3 1005.2 +14.6 +29.8
06 20.06 СЗ 2 н/о н/о +15.9 +1.7 38 +16 +16 1021.6 1005.5 +14.6
09 20.06 СВ 2 н/о н/о +21.3 +2.7 29 +21 +21 комфорт 1021.8 1006.0 +14.6 +21.5
12 20.06 СВ 2 н/о н/о +21.7 +6.5 37 +22 +22 комфорт 1018.7 1003.0 +14.6 +22.7
15 20.06 СВ 2 н/о н/о +19.0 +9.8 55 +20 +20 1018.0 1002.1 +18.9 +22.7
18 20.06 штиль 0 н/о н/о +16.5 +6.9 53 +16 +16 1017.0 1001.0 +15.7 +22.7
21 20.06 СЗ 2 н/о н/о +19.4 +2.4 32 +20 +20 1015.7 999.9 +15.7 +22.7
00 21.06 СЗ 3 н/о н/о +21.7 -0.1 23 +21 +21 комфорт 1014.3 998.6 +15.7 +22.7
03 21.06 С 5 н/о н/о +21.5 -0.3 23 +21 +21 комфорт 1011.9 996.3 +15.7 +22.7
06 21.06 СЗ 3 н/о н/о +22.4 +0.4 23 +22 +22 комфорт 1012.3 996.7 +15.7
09 21.06 З 1 н/о н/о +27.0 +3.1 21 +25 +25 комфорт 1012.6 997.2 +15.7 +27.0
12 21.06 Ю 2 н/о н/о +19.9 +7.1 43 +22 +22 комфорт 1010.7 995.0 +15.7 +28.0
15 21.06 С 3 н/о н/о +17.7 +9.6 59 +18 +18 1010.4 994.6 +17.5 +28.0
18 21.06 СЗ 3 н/о н/о +18.9 +9.7 55 +20 +20 1011.3 995.5 +17.5 +28.0
21 21.06 СЗ 3 н/о н/о +17.0 +6.9 51 +17 +17 1011.9 996.0 +16.6 +28.0
00 22.06 СЗ 6 н/о н/о +17.0 +3.7 41 +16 +16 1011.1 995.2 +16.5 +28.0
03 22.06 СЗ 4 н/о н/о +13.9 +8.9 72 +12 +12 1013.5 997.4 +13.9 +28.0
06 22.06 З 6 н/о н/о +12.8 +10.5 86 +10 +10 1017.3 1001.1 +12.8
09 22.06 З 6 н/о н/о +15.5 +10.7 73 +14 +14 1019.7 1003.6 +12.8 +15.5
12 22.06 З 7 н/о н/о +15.8 +11.2 74 +14 +14 1018.1 1002.0 +12.8 +18.3
15 22.06 З 6 н/о н/о +14.5 +12.3 87 +13 +13 1020.1 1003.9 +14.5 +18.3
18 22.06 ЮЗ 5 н/о н/о +14.4 +13.4 94 +13 +13 1022.0 1005.8 +14.1 +18.3 0.6
21 22.06 ЮЗ 5 н/о н/о +14.3 +13.0 92 +13 +13 1022.6 1006.4 +14.1 +18.3
00 23.06 ЮЗ 5 н/о н/о +14.3 +12.8 91 +13 +13 1022.5 1006.3 +14.1 +18.3 0.6
03 23.06 ЮЗ 3 н/о н/о +13.9 +12.8 93 +13 +13 1022.4 1006.2 +13.9 +18.3
06 23.06 З 5 н/о н/о +13.2 +12.4 95 +11 +11 1023.3 1007.0 +13.2 2
09 23.06 З 3 н/о н/о +14.1 +12.8 92 +13 +13 1023.7 1007.5 +13.0 +14.1
12 23.06 Ю 2 н/о н/о +16.0 +12.4 79 +16 +16 1021.1 1005.0 +13.0 +17.8 0.6
15 23.06 штиль 0 н/о н/о +14.5 +12.5 88 +14 +14 1020.2 1004.0 +14.5 +17.8
18 23.06 штиль 0 н/о н/о +13.0 +11.9 93 +12 +12 1019.9 1003.7 +13.0 +17.8 0.6
21 23.06 штиль 0 н/о н/о +11.9 +11.1 95 +11 +11 1019.4 1003.1 +11.9 +17.8
00 24.06 штиль 0 н/о н/о +10.3 +9.5 95 +9 +9 1018.2 1001.8 +10.3 +17.8 0.6
03 24.06 штиль 0 н/о н/о +10.4 +9.7 95 +10 +10 1016.9 1000.6 +10.1 +17.8
06 24.06 ЮЗ 1 н/о н/о +10.3 +9.8 97 +10 +10 1017.5 1001.1 +9.8 0.8
09 24.06 ЮЗ 4 н/о н/о +11.6 +11.1 97 +9 +9 1019.1 1002.8 +9.8 +12.2
12 24.06 ЮЗ 3 н/о н/о +14.6 +11.2 80 +14 +14 1018.7 1002.6 +9.8 +15.2
15 24.06 ЮЗ 3 н/о н/о +14.5 +11.3 81 +14 +14 1020.1 1003.9 +14.5 +16.2
18 24.06 ЮЗ 2 н/о н/о +13.3 +9.9 80 +13 +13 1021.7 1005.4 +13.3 +16.2
21 24.06 ЮЗ 3 н/о н/о +13.4 +11.1 86 +12 +12 1022.5 1006.2 +12.7 +16.2
00 25.06 ЮЗ 1 н/о н/о +12.6 +11.8 95 +12 +12 1022.6 1006.3 +12.1 +16.2 0.2
03 25.06 В 1 н/о н/о +12.2 +11.5 95 +12 +12 1023.0 1006.7 +12.0 +16.2
06 25.06 СВ 1 н/о н/о +12.2 +11.5 95 +12 +12 1023.9 1007.5 +11.9 2
09 25.06 В 5 н/о н/о +12.3 +11.6 95 +10 +10 1025.2 1008.8 +11.9 +12.6

 

Местоположение метеостанции Мыс Mossel Bay (Южная Африка): широта -34.18 долгота 22.15 высота над уровнем моря 61 м.

В архиве по умолчанию представлена погода на Мысе Mossel Bay за последнюю неделю. Архивные данные за месяц целиком и за предыдущие месяцы, начиная с января 2011 года, Вы можете получить, выбрав интересующий диапазон дат из раскрывающегося списка и нажав кнопку "Ввод!".


*Определитесь, кто Вы:
робот инопланетянин человек

Внимание! Время в таблицах - всемирное. Для получения местного времени необходимо прибавить поправку, которая равна 2 ч.

Смотрите также архив погоды в соседних городах и на ближайших метеорологических станциях:

Погода в Аэропорту Джордж (Южная Африка) (28 км)
Погода в Стилбай (Южная Африка) (72 км)
Погода в Риверсдейле (Южная Африка) (84 км)
Погода в Найсне (Южная Африка) (87 км)
Погода в Плеттенберг-Бей (Южная Африка) (109 км)
Погода в Принс Альберт (Южная Африка) (111 км)
Погода в Ледисмите (Южная Африка) (154 км)
Погода в Уиллоуморе (Южная Африка) (160 км)
Погода в Лайнгсбурге (Южная Африка) (161 км)
Погода в Джоубертине (Южная Африка) (162 км)

Пояснения к столбцам:

Ветер - указаны скорость ветра в м/с - средняя за 10 мин, порывы в срок и между сроками (в фигурных скобках) и направление, откуда дует ветер: С - северный, СВ - северо-восточный, В - восточный, ЮВ - юго-восточный, Ю - южный, ЮЗ - юго-западный, З - западный, СЗ - северо-западный.
Видимость - горизонтальная дальность видимости в метрах или километрах. При видимости от 1 до 10 км при отсутствии осадков обычно наблюдается дымка, при ухудшении видимости до 1 км и менее - туман. В сухую погоду видимость может ухудшаться дымом, пылью или мглою.
Явления - указаны атмосферные явления, наблюдавшиеся в срок или в последний час перед сроком; фигурными скобками обозначены явления, наблюдавшиеся между сроками (за 1-3 часа до срока); квадратными скобками обозначены град или гололедные отложения с указанием их диаметра в мм.
Облачность - указаны через наклонную черту общая и нижняя облачность в баллах и высота нижней границы облаков в метрах; квадратными скобками обозначены формы облаков: Ci - перистые, Cs - перисто-слоистые, Cc - перисто-кучевые, Ac - высококучевые, As - высокослоистые, Sc - слоисто-кучевые, Ns - слоисто-дождевые, Cu - кучевые, Cb - кучево-дождевые. Подробнее классификацию облаков см. в Атласе облаков (PDF).
T - Температура воздуха - температура, измеренная на высоте 2 м над землей.
Td - Температура точки росы - температура, при понижении до которой содержащийся в воздухе водяной пар достигнет насыщения.
f - Относительная влажность воздуха - влажноcть воздуха, измеренная на высоте 2 м над землей.
Te - Эффективная температура - температура, которую ощущает одетый по сезону человек в тени. Характеристика душности погоды. При расчете учитывается влияние влажности воздуха и скорости ветра на теплоощущения человека.
Tes - Эффективная температура на солнце - температура, которую ощущает человек, с поправкой на солнечный нагрев. Характеристика знойности погоды. Зависит от высоты солнца над горизонтом, облачности и скорости ветра. Ночью, в пасмурную погоду, а также при ветре 12 м/с и более поправка равна нулю.
P - Атмосферное давление - приведенное к уровню моря атмосферное давление.
Po - Атмосферное давление - измеренное на уровне метеостанции атмосферное давление.
Tmin - Минимальная температура - минимум температуры воздуха на высоте 2 м над землей.
Tmax - Максимальная температура - максимум температуры воздуха на высоте 2 м над землей.
R - Количество осадков - Количество выпавших осадков за период времени, мм. При наведении курсора мыши на число - период времени, за который выпало указанное количество осадков.
R24 - Количество осадков - Количество выпавших осадков за 24 часа, мм.
S - Снежный покров - Высота снежного покрова, см. При наведении курсора мыши на число - состояние снежного покрова и степень покрытия местности в баллах.